星链-34027 (STARLINK-34027)

导读

STARLINK-34027是美国SpaceX星链星座的成员卫星,于2025年5月13日发射入轨。星链项目旨在构建全球卫星互联网星座,为全球偏远地区、海洋、空中等场景提供高速低延迟的互联网接入服务,该卫星承担星座组网任务,延续了星链大规模部署全球覆盖网络的发展节奏,服务天地一体化通信网络建设。

基本信息
目录编号:
63936
目录名称:
STARLINK-34027
国际标识:
2025-098L
轨道中心:
EARTH
卫星名称:
星链-34027
卫星全名:
星链-34027 (STARLINK-34027)
卫星状态:
在轨 (已飞行397 天)
发射日期:
2025-05-13 UTC
国别 :
美国 (US)
星等 :
--
轨道信息
数据来源 国际轨道数据 AOE轨道数据
星历时间 2026-06-14T04:51:29+0800
5小时前
查看轨道信息
2026-06-09T01:00:00+0800
5天前
查看轨道信息
半长轴 6950.116km 6950.117km
偏心率 0.0003028 0.0000034
轨道倾角 70.002° 70.002°
近地点辐角 267.981° 156.158°
升交点赤经 31.774° 44.783°
平近点角 92.100° 94.762°
近地点 569.874km 571.956km
远地点 574.084km 572.004km
周期 96.105分钟 96.105分钟
每日圈数 14.983551 14.983546
详细信息
固有亮度:
5
最大亮度:
2.5
卫星平台:
Starlink V1.0
覆盖范围:
全球
运营商:
太空探索技术公司
运营商所在国:
美国
制造商(研发单位):
太空探索技术公司
制造商所在国:
美国
使用方式:
暂无
卫星简介
Starlink 计划是 SpaceX 推出的全球卫星互联网项目,通过发射低轨道卫星,为全球尤其是偏远地区提供高速、低延迟的互联网服务。自 2019 年起,Starlink 已部署数千颗卫星,旨在缩小全球数字鸿沟,推动互联网普及。该项目还为军事、航空等行业提供通信支持,带来广泛经济效益。
2D轨道图
3D轨道图
轨道高度分析图
轨道倾角分析图
轨道综合分析图
查看轨道综合分析图